Regional Weather Roundup
Issued by NWS

Home | Current Version | Previous Version | Graphics & Text | Print | Product List | Glossary On
Versions: 1 2 3 4 5 6 7 8 9 10 11 12 13 14 15 16 17 18 19 20 21 22 23 24 25 26 27 28 29 30 31 32 33 34 35 36 37 38 39 40 41 42 43 44 45 46 47 48 49 50
479
ASUS43 KDMX 271006
RWRIA

WEATHER ROUNDUP FOR IOWA
NATIONAL WEATHER SERVICE DES MOINES IA
500 AM CDT THU APR 27 2017

NOTE: "FAIR" INDICATES FEW OR NO CLOUDS BELOW 12,000 FEET WITH NO
SIGNIFICANT WEATHER AND/OR OBSTRUCTIONS TO VISIBILITY.

* - THESE STATIONS ARE NOT NWS STATIONS...THUS NOT UNDER NWS
QUALITY CONTROL.  THEY ALSO DO NOT REPORT WEATHER SUCH
AS PRECIPITATION OR FOG.

IAZ001>003-012>014-020>022-031>034-043>046-271100-
   NORTHWEST IOWA

CITY           SKY/WX    TMP DP  RH WIND       PRES   REMARKS
CARROLL *      CLOUDY    34  30  86 NW16      29.62R WCI  23
CHEROKEE *     CLOUDY    32  29  89 NW10G17   29.62S WCI  24
DENISON *      CLOUDY    34  28  80 NW16      29.65R WCI  23
LE MARS *      CLOUDY    32  28  86 NW10      29.65S WCI  24
ORANGE CITY *  CLOUDY    30  28  93 NW10      29.62S WCI  21
SHELDON *      CLOUDY    30  27  86 NW20      29.60S WCI  18
SIOUX CITY     CLOUDY    33  29  85 NW13      29.65R WCI  24
SPENCER        CLOUDY    30  29  96 NW13      29.60S FOG     WCI  20
STORM LAKE *   CLOUDY    32  28  86 NW16      29.61R WCI  21
$$

IAZ055>058-069>071-079>083-090>094-271100-
   SOUTHWEST IOWA

CITY           SKY/WX    TMP DP  RH WIND       PRES   REMARKS
ATLANTIC *     CLOUDY    36  30  80 NW9       29.65R WCI  29
AUDUBON *      CLOUDY    36  30  80 NW8       29.64R WCI  29
CLARINDA *     CLOUDY    41  32  70 NW8       29.68S
COUNCIL BLFS * CLOUDY    36  30  80 NW13G20   29.65R WCI  27
CRESTON *      CLOUDY    36  30  80 NW14G20   29.63S WCI  27
HARLAN  *      CLOUDY    36  30  80 NW12      29.68R WCI  27
LAMONI         CLOUDY    38  32  79 NW13      29.60S WCI  30
RED OAK *      CLOUDY    39  32  75 NW10      29.66R WCI  32
SHENANDOAH *   CLOUDY    41  32  70 NW10      29.67R
$$

IAZ047>049-059>061-072>074-084-271100-
   CENTRAL IOWA

CITY           SKY/WX    TMP DP  RH WIND       PRES   REMARKS
AMES           CLOUDY    35  31  85 NW17      29.57F WCI  25
ANKENY *       CLOUDY    36  30  80 NW16G22   29.59S WCI  26
BOONE *        CLOUDY    34  30  86 NW16      29.57F WCI  23
CHARITON *     CLOUDY    37  32  81 W17       29.58R WCI  28
DES MOINES     DRIZZLE   37  33  85 NW20      29.58S WCI  27
GRINNELL*      CLOUDY    36  32  86 W21G26    29.55F WCI  25
KNOXVILLE *    CLOUDY    37  34  87 W16       29.56R WCI  28
MARSHALLTOWN   CLOUDY    35  32  88 NW17      29.54R WCI  25
NEWTON *       CLOUDY    36  32  87 NW16      29.55S WCI  26
PELLA *        CLOUDY    38  32  80 NW13G22   29.57S WCI  30
PERRY *        CLOUDY    35  33  92 NW10      29.60F WCI  27
$$

IAZ004>006-015-016-023>025-035-036-271100-
   NORTH CENTRAL IOWA

CITY           SKY/WX    TMP DP  RH WIND       PRES   REMARKS
ALGONA *       CLOUDY    32  30  93 NW15G22   29.58S WCI  22
CLARION *      CLOUDY    32  32 100 NW17      29.56F WCI  21
ESTHERVILLE    CLOUDY    30  28  92 NW15      29.58F WCI  19
FORT DODGE *   CLOUDY    32  25  74 NW9       29.60S WCI  24
MASON CITY     CLOUDY    33  31  92 NW15      29.54F WCI  23
FOREST CITY *  CLOUDY    32  30  93 NW14G20   29.55S WCI  22
WEBSTER CITY * CLOUDY    34  30  86 NW17      29.56S WCI  23
IOWA FALLS *   CLOUDY    35  32  90 NW18      29.56S WCI  24
$$

IAZ007>011-017>019-026>030-037>042-050>054-066-271100-
   NORTHEAST IOWA

CITY           SKY/WX    TMP DP  RH WIND       PRES   REMARKS
CEDAR RAPIDS   LGT RAIN  37  36  96 NW16      29.48F WCI  28
CHARLES CITY * CLOUDY    36  34  93 NW16      29.51S WCI  26
CLINTON *      RAIN      41  39  93 W17       29.44S
DECORAH *      CLOUDY    37  34  87 NW14G21   29.46R WCI  29
DUBUQUE        LGT RAIN  37  36  96 NW12      29.44S FOG     WCI  29
MONTICELLO *   LGT RAIN  36  36 100 W15G21    29.47S WCI  26
OELWEIN *      CLOUDY    37  36  93 NW17G23   29.49S WCI  28
WATERLOO       CLOUDY    37  31  78 W13G21    29.51S WCI  29
$$

IAZ064-065-067-068-078-271100-
   EAST CENTRAL IOWA

CITY           SKY/WX    TMP DP  RH WIND       PRES   REMARKS
DAVENPORT      LGT RAIN  39  37  92 W18       29.46S WCI  30
IOWA CITY      LGT RAIN  38  32  79 NW10      29.51F WCI  31
MT. PLEASANT * DRIZZLE   38  38  99 W9G17     29.54R WCI  31
MUSCATINE *    LGT RAIN  39  36  87 NW14      29.51S WCI  31
QUAD CITIES    LGT RAIN  41  37  86 W18G26    29.47R
$$

IAZ062-063-075>077-085>089-095>099-271100-
   SOUTHEAST IOWA

CITY           SKY/WX    TMP DP  RH WIND       PRES   REMARKS
BURLINGTON     CLOUDY    39  38  96 NW7       29.52R WCI  34
FAIRFIELD *    CLOUDY    39  34  81 NW15G22   29.54R WCI  31
FORT MADISON * LGT RAIN  39  39 100 W12       29.55R WCI  32
KEOKUK *       LGT RAIN  41  39  93 W9        29.55R
OSKALOOSA *    CLOUDY    38  33  85 NW17G24   29.57R WCI  28
CENTERVILLE *  CLOUDY    37  36  93 W12       29.60R WCI  30
OTTUMWA        CLOUDY    39  34  82 NW14      29.56R WCI  31
WASHINGTON *   CLOUDY    39  37  93 NW17      29.54R WCI  30
$$

ABBREVIATIONS USED IN REMARKS
   TC - TEMPERATURES IN CELSIUS
  WCI - WIND CHILL INDEX
   HX - HEAT INDEX
  VSB - VISIBILITY
$$





USA.gov is the U.S. government's official web portal to all federal, state and local government web resources and services.